Current Weather Conditions: station 63103

sailwx.info

Wind from 220 at 13 knots

Wave height 1.8 meters (5 feet), 6 second period

Air temperature 7.4° C
Dewpoint 5.0° C

Last reported at 2018-Apr-25 23:00 UTC.
Time now 2018-Apr-26 00:16 UTC

Location: N 61°12' E 001°06'.
View on Google Maps.

See reports from other nearby stations

  
Tides and Currents Weather Stations Pressure Air Temp Water Temp Dewpoint Dewpoint Depression Visibility Wind Speed Wind Dir Waves Ship Positions
date/time (UTC)wind fromknots sea level pressurealtimeterstation pressurevisibilityair tempwater tempwave heightnotes
2018-Apr-25 23:00 220 13 7.4 1.8
2018-Apr-25 22:00 260 6 7.2 1.7
2018-Apr-25 21:00 250 9 6.9 1.6
2018-Apr-25 20:00 240 7 7.0 1.8
2018-Apr-25 19:00 240 12 7.5 1.8
2018-Apr-25 18:00 240 12 7.3 1.9
2018-Apr-25 17:00 240 9 7.6 1.9
2018-Apr-25 16:00 230 11 7.5 1.6
2018-Apr-25 15:00 230 9 7.9 1.7
2018-Apr-25 14:00 230 8 7.7 1.6
2018-Apr-25 13:00 220 6 7.2 1.6
2018-Apr-25 12:00 240 6 6.2 1.8
2018-Apr-25 11:00 210 7 7.0 1.7
2018-Apr-25 10:00 200 6 5.9 1.8
2018-Apr-25 09:00 220 2 5.3 1.8
2018-Apr-25 08:00 220 4 6.6 1.9
2018-Apr-25 07:00 6.6 1.9
2018-Apr-25 06:00 6.4 1.8
2018-Apr-25 05:00 6.2 1.9
2018-Apr-25 04:00 6.2 2.3
2018-Apr-25 03:00 300 1 6.4 2.0
2018-Apr-25 02:00 310 1 6.4 2.0
2018-Apr-25 01:00 300 4 6.4 2.0
2018-Apr-25 00:00 310 6 6.5 1.9
2018-Apr-24 23:00 290 6 6.7 2.0
2018-Apr-24 22:00 290 7 6.8 2.1
2018-Apr-24 21:00 280 8 6.7 2.0
2018-Apr-24 20:00 280 7 6.6 2.2
2018-Apr-24 19:00 290 7 6.6 2.4
2018-Apr-24 18:00 290 7 6.6
2018-Apr-24 17:00 290 9 6.7 2.6
2018-Apr-24 16:00 290 12 6.6 2.5
2018-Apr-24 15:00 280 13 6.1 2.6
2018-Apr-24 14:00 290 12 6.5 2.8
2018-Apr-24 13:00 290 17 6.6 2.7
2018-Apr-24 12:00 280 17 7.1 2.5
2018-Apr-24 11:00 290 14 7.3 2.6
2018-Apr-24 10:00 290 13 6.9 2.5
2018-Apr-24 09:00 280 20 7.2 2.7
2018-Apr-24 08:00 270 18 7.1 2.7
2018-Apr-24 07:00 270 19 7.3 2.7
2018-Apr-24 06:00 270 17 6.9 2.5
2018-Apr-24 05:00 260 20 7.1 2.4
2018-Apr-24 04:00 250 19 7.2 2.4
2018-Apr-24 03:00 240 19 7.4 2.3
2018-Apr-24 02:00 240 19 7.5 2.5
2018-Apr-24 01:00 240 20 7.5 2.6
2018-Apr-24 00:00 240 20 7.6 2.5